FW6915 Weather Reports


time (UTC)temp
F
wind
direction
speed
knots
gust
knots
rain 1hr
in
rain 24hr
in
rain mn
in
humidity
%
barometer
mb
20260505111721 56 10 0.0 0.0 0.00 0.00 0.00 86 1012.8
20260505111221 55 15 0.0 0.0 0.00 0.00 0.00 86 1012.8
20260505111031 55 15 0.0 0.0 0.00 0.00 0.00 86 1012.9
20260505110220 55 355 0.0 0.0 0.00 0.00 0.00 86 1013.0
20260505102213 54 10 0.0 0.0 0.00 0.00 0.00 91 1013.1
20260505102034 53 15 0.0 0.0 0.00 0.00 0.00 92 1013.1
20260505101209 53 15 0.0 0.0 0.00 0.00 0.00 92 1013.1
20260505100708 53 15 0.0 0.0 0.00 0.00 0.00 93 1013.0
20260505100526 53 21 0.0 0.0 0.00 0.00 0.00 93 1012.9
20260505095708 53 21 0.0 0.0 0.00 0.00 0.00 93 1013.0
20260505095211 53 358 0.0 0.0 0.00 0.00 0.00 94 1012.9
20260505094705 53 342 0.0 0.0 0.00 0.00 0.00 94 1012.8
20260505094521 52 5 0.0 0.0 0.00 0.00 0.00 94 1012.8
20260505094515 52 5 0.0 0.0 0.00 0.00 0.00 94 1012.8
20260505094404 53 5 0.0 0.0 0.00 0.00 0.00 94 1012.8
20260505092703 52 10 0.0 0.0 0.00 0.00 0.00 94 1012.8
20260505092205 52 10 0.0 0.0 0.00 0.00 0.00 94 1012.8
20260505091707 51 10 0.0 0.0 0.00 0.00 0.00 94 1012.8
20260505091204 51 10 0.0 0.0 0.00 0.00 0.00 94 1012.8
20260505090700 52 23 0.0 0.0 0.00 0.00 0.00 94 1012.8
20260505090158 52 358 0.0 0.0 0.00 0.00 0.00 94 1012.8
20260505085701 52 36 0.0 0.0 0.00 0.00 0.00 94 1012.7
20260505085156 52 36 0.0 0.0 0.00 0.00 0.00 94 1012.7
20260505084658 52 34 0.0 0.0 0.00 0.00 0.00 94 1012.7
20260505084153 53 10 0.0 0.0 0.00 0.00 0.00 95 1012.8
20260505083653 53 10 0.0 0.0 0.00 0.00 0.00 95 1012.7
20260505083153 53 10 0.0 0.0 0.00 0.00 0.00 95 1012.7
20260505082655 53 5 0.0 0.0 0.00 0.00 0.00 95 1012.7
20260505082156 53 5 0.0 0.0 0.00 0.00 0.00 95 1012.7
20260505081657 53 5 0.0 0.0 0.00 0.00 0.00 95 1012.7
20260505081154 52 5 0.0 0.0 0.00 0.00 0.00 95 1012.7
20260505080653 52 15 0.0 0.0 0.00 0.00 0.00 95 1012.7
20260505080159 52 15 0.0 0.0 0.00 0.00 0.00 95 1012.7
20260505080005 52 15 0.0 0.0 0.00 0.00 0.00 95 1012.6
20260505075202 52 15 0.0 0.0 0.00 0.00 0.00 95 1012.6
20260505074658 52 15 0.0 0.0 0.00 0.00 0.00 95 1012.6
20260505074200 51 15 0.0 0.0 0.00 0.00 0.00 95 1012.6
20260505073700 51 15 0.0 0.0 0.00 0.00 0.00 95 1012.7
20260505073512 51 15 0.0 0.0 0.00 0.00 0.00 96 1012.7
20260505072653 51 15 0.0 0.0 0.00 0.00 0.00 95 1012.6
20260505072153 51 5 0.0 0.0 0.00 0.00 0.00 96 1012.6
20260505071655 50 5 0.0 0.0 0.00 0.00 0.00 95 1012.6
20260505071155 50 5 0.0 0.0 0.00 0.00 0.00 95 1012.6
20260505071002 50 5 0.0 0.0 0.00 0.00 0.00 95 1012.7
20260505070155 50 5 0.0 0.0 0.00 0.00 0.00 95 1012.7
20260505065655 50 5 0.0 0.0 0.00 0.00 0.00 95 1012.7
20260505065148 50 5 0.0 0.0 0.00 0.00 0.00 95 1012.6
20260505064649 50 5 0.0 0.0 0.00 0.00 0.00 95 1012.6
20260505064147 49 5 0.0 0.0 0.00 0.00 0.00 95 1012.6
20260505063645 49 5 0.0 0.0 0.00 0.00 0.00 95 1012.7
20260505063142 49 5 0.0 0.0 0.00 0.00 0.00 95 1012.6
20260505062639 49 5 0.0 0.0 0.00 0.00 0.00 95 1012.6
20260505062141 49 5 0.0 0.0 0.00 0.00 0.00 95 1012.5
20260505061637 49 5 0.0 0.0 0.00 0.00 0.00 95 1012.4
20260505061138 49 5 0.0 0.0 0.00 0.00 0.00 95 1012.5
20260505060639 48 5 0.0 0.0 0.00 0.00 0.00 95 1012.5
20260505060448 48 5 0.0 0.0 0.00 0.00 0.00 95 1012.5
20260505055633 48 5 0.0 0.0 0.00 0.00 0.00 95 1012.5
20260505055132 48 5 0.0 0.0 0.00 0.00 0.00 95 1012.5
20260505054630 48 5 0.0 0.0 0.00 0.00 0.00 95 1012.4
20260505054129 48 5 0.0 0.0 0.00 0.00 0.00 95 1012.4
20260505053626 48 5 0.0 0.0 0.00 0.00 0.00 95 1012.4
20260505053120 48 5 0.0 0.0 0.00 0.00 0.00 95 1012.4
20260505052616 49 5 0.0 0.0 0.00 0.00 0.00 95 1012.4
20260505052113 49 5 0.0 0.0 0.00 0.00 0.00 95 1012.5
20260505051920 49 5 0.0 0.0 0.00 0.00 0.00 95 1012.5
20260505051437 49 5 0.0 0.0 0.00 0.00 0.00 95 1012.5
20260505050604 49 5 0.0 0.0 0.00 0.00 0.00 95 1012.5
20260505041553 50 5 0.0 0.0 0.00 0.00 0.00 95 1012.3
20260505041051 50 5 0.0 0.0 0.00 0.00 0.00 95 1012.3
20260505040550 50 5 0.0 0.0 0.00 0.00 0.00 95 1012.2
20260505040044 50 5 0.0 0.0 0.00 0.00 0.00 95 1012.3
20260505035541 50 5 0.0 0.0 0.00 0.00 0.00 95 1012.3
20260505035038 50 5 0.0 0.0 0.00 0.00 0.00 95 1012.2
20260505034535 51 5 0.0 0.0 0.00 0.00 0.00 95 1012.2
20260505034033 51 5 0.0 0.0 0.00 0.00 0.00 95 1012.2
20260505033836 51 5 0.0 0.0 0.00 0.00 0.00 95 1012.2
20260505033033 51 5 0.0 0.0 0.00 0.00 0.00 95 1012.2
20260505032530 51 5 0.0 0.0 0.00 0.00 0.00 95 1012.2
20260505032032 51 5 0.0 0.0 0.00 0.00 0.00 95 1012.3
20260505031528 51 5 0.0 0.0 0.00 0.00 0.00 95 1012.3
20260505031337 51 5 0.0 0.0 0.00 0.00 0.00 95 1012.3
20260505030529 51 5 0.0 0.0 0.00 0.00 0.00 95 1012.3
20260505030026 51 5 0.0 0.0 0.00 0.00 0.00 95 1012.3
20260505025830 51 5 0.0 0.0 0.00 0.00 0.00 95 1012.4
20260505025327 51 5 0.0 0.0 0.00 0.00 0.00 95 1012.3
20260505024520 51 5 0.0 0.0 0.00 0.00 0.00 95 1012.4
20260505024018 51 5 0.0 0.0 0.00 0.00 0.00 95 1012.4
20260505023520 51 5 0.0 0.0 0.00 0.00 0.00 94 1012.4
20260505023013 51 5 0.0 0.0 0.00 0.00 0.00 94 1012.4
20260505022513 51 5 0.0 0.0 0.00 0.00 0.00 94 1012.4
20260505022012 51 5 0.0 0.0 0.00 0.00 0.00 94 1012.5
20260505021510 51 5 0.0 0.0 0.00 0.00 0.00 94 1012.5
20260505021008 51 5 0.0 0.0 0.00 0.00 0.00 94 1012.5
20260505020504 51 5 0.0 0.0 0.00 0.00 0.00 94 1012.5
20260505020008 51 5 0.0 0.0 0.00 0.00 0.00 94 1012.5
20260505015508 51 5 0.0 0.0 0.00 0.00 0.00 94 1012.5
20260505015002 51 5 0.0 0.0 0.00 0.00 0.00 94 1012.5
20260505014503 52 5 0.0 0.0 0.00 0.00 0.00 94 1012.6
20260505014004 52 5 0.0 0.0 0.00 0.00 0.00 94 1012.6
20260505013504 52 5 0.0 0.0 0.00 0.00 0.00 94 1012.6
20260505013004 52 5 0.0 0.0 0.00 0.00 0.00 94 1012.8
20260505012504 52 5 0.0 0.0 0.00 0.00 0.00 94 1012.7
20260505012313 52 5 0.0 0.0 0.00 0.00 0.00 94 1012.8
20260505011504 52 5 0.0 0.0 0.00 0.00 0.00 94 1012.8
20260505011308 52 5 0.0 0.0 0.00 0.00 0.00 94 1012.8
20260505010809 52 5 0.0 0.0 0.00 0.00 0.00 94 1012.8
20260505010003 52 5 0.0 0.0 0.00 0.00 0.00 94 1012.8
20260505005504 52 5 0.0 0.0 0.00 0.00 0.00 94 1012.8
20260505005004 52 5 0.0 0.0 0.00 0.00 0.00 94 1012.8
20260505004813 52 5 0.0 0.0 0.00 0.00 0.00 94 1012.9
20260505004004 52 5 0.0 0.0 0.00 0.00 0.00 94 1012.9
20260505003808 52 5 0.0 0.0 0.00 0.00 0.00 94 1012.9
20260505003003 52 5 0.0 0.0 0.00 0.00 0.00 94 1012.9
20260505002805 52 1 0.0 0.0 0.00 0.00 0.00 94 1012.9
20260505002002 52 1 0.0 0.0 0.00 0.00 0.00 94 1012.9
20260505001808 52 15 0.0 0.0 0.00 0.00 0.00 94 1013.0
20260505001000 52 15 0.0 0.0 0.00 0.00 0.00 94 1013.0
20260505000500 52 15 0.0 0.0 0.00 0.00 0.00 94 1013.0
20260504235954 53 15 0.0 0.0 0.00 0.00 0.00 94 1013.1
20260504235450 53 15 0.0 0.0 0.00 0.00 0.00 94 1013.1
20260504234951 53 15 0.0 0.0 0.00 0.00 0.00 94 1013.1
20260504234451 53 15 0.0 0.0 0.00 0.00 0.00 94 1013.2
20260504234106 53 15 0.0 0.0 0.00 0.00 0.00 94 1013.2
20260504234036 53 15 0.0 0.0 0.00 0.00 0.00 94 1013.1
20260504232952 53 15 0.0 0.0 0.00 0.00 0.00 94 1013.1
20260504232450 53 15 0.0 0.0 0.00 0.00 0.00 94 1013.2
20260504231952 53 15 0.0 0.0 0.00 0.00 0.00 94 1013.2
20260504231452 53 15 0.0 0.0 0.00 0.00 0.00 94 1013.2
20260504231002 53 15 0.0 0.0 0.00 0.00 0.00 94 1013.1
20260504230452 53 15 0.0 0.0 0.00 0.00 0.00 93 1013.1
20260504225948 53 15 0.0 0.0 0.00 0.00 0.00 93 1013.2
20260504225448 53 15 0.0 0.0 0.00 0.00 0.00 93 1013.2
20260504224948 53 15 0.0 0.0 0.00 0.00 0.00 94 1013.2
20260504224447 53 15 0.0 0.0 0.00 0.00 0.00 94 1013.2
20260504223950 53 15 0.0 0.0 0.00 0.00 0.00 94 1013.2
20260504223449 53 15 0.0 0.0 0.00 0.00 0.00 94 1013.1
20260504222948 53 15 0.0 0.0 0.00 0.00 0.00 93 1013.2
20260504222449 53 15 0.0 0.0 0.00 0.00 0.00 93 1013.2
20260504221950 53 15 0.0 0.0 0.00 0.00 0.00 93 1013.2
20260504221803 53 15 0.0 0.0 0.00 0.00 0.00 93 1013.2
20260504221308 53 15 0.0 0.0 0.00 0.00 0.00 93 1013.2
20260504220444 53 15 0.0 0.0 0.00 0.00 0.00 93 1013.3
20260504215943 53 15 0.0 0.0 0.00 0.00 0.00 93 1013.3
20260504215441 53 15 0.0 0.0 0.00 0.00 0.00 93 1013.3
20260504214938 53 15 0.0 0.0 0.00 0.00 0.00 93 1013.3
20260504214800 53 15 0.0 0.0 0.00 0.00 0.00 93 1013.3
20260504213933 53 15 0.0 0.0 0.00 0.00 0.00 93 1013.3
20260504213430 53 15 0.0 0.0 0.00 0.00 0.00 93 1013.3
20260504212932 53 15 0.0 0.0 0.00 0.00 0.00 93 1013.3
20260504212752 53 15 0.0 0.0 0.00 0.00 0.00 93 1013.3
20260504211932 53 15 0.0 0.0 0.00 0.00 0.00 93 1013.3
20260504211430 53 15 0.0 0.0 0.00 0.00 0.00 93 1013.3
20260504211304 53 15 0.0 0.0 0.00 0.00 0.00 93 1013.4
20260504210434 53 15 0.0 0.0 0.00 0.00 0.00 92 1013.4
20260504205929 53 15 0.0 0.0 0.00 0.00 0.00 92 1013.4
20260504205428 53 15 0.0 0.0 0.00 0.00 0.00 92 1013.4
20260504204925 52 15 0.0 0.0 0.00 0.00 0.00 92 1013.5
20260504204741 52 15 0.0 0.0 0.00 0.00 0.00 92 1013.4
20260504203920 52 15 0.0 0.0 0.00 0.00 0.00 92 1013.4
20260504203741 52 15 0.0 0.0 0.00 0.00 0.00 91 1013.3
20260504202918 52 15 0.0 0.0 0.00 0.00 0.00 91 1013.2
20260504202417 52 15 0.0 0.0 0.00 0.00 0.00 91 1013.2
20260504201917 52 15 0.0 0.0 0.00 0.00 0.00 90 1013.2
20260504201411 52 15 0.0 0.0 0.00 0.00 0.00 90 1013.1
20260504200904 51 19 0.0 0.0 0.00 0.00 0.00 90 1013.1
20260504200404 51 19 0.0 0.0 0.00 0.00 0.00 89 1013.0
20260504195904 52 19 0.0 0.0 0.00 0.00 0.00 89 1013.1
20260504195404 52 19 0.0 0.0 0.00 0.00 0.00 88 1013.1
20260504194903 52 19 0.0 0.0 0.00 0.00 0.00 88 1013.0
20260504194402 52 19 0.0 0.0 0.00 0.00 0.00 87 1013.0
20260504193903 53 19 0.0 0.0 0.00 0.00 0.00 87 1013.0
20260504193405 53 19 0.0 0.0 0.00 0.00 0.00 86 1013.0
20260504192904 53 19 0.0 0.0 0.00 0.00 0.00 86 1013.0
20260504192402 54 19 0.0 0.0 0.00 0.00 0.00 86 1012.9
20260504191907 55 19 0.0 0.0 0.00 0.00 0.00 85 1012.9
20260504191404 55 19 0.0 0.0 0.00 0.00 0.00 85 1012.8
20260504190905 56 19 0.0 0.0 0.00 0.00 0.00 85 1012.7
20260504190402 56 19 0.0 0.0 0.00 0.00 0.00 86 1012.7
20260504185903 56 19 0.0 0.0 0.00 0.00 0.00 86 1012.8
20260504185404 56 19 0.0 0.0 0.00 0.00 0.00 85 1012.8
20260504185215 56 19 0.0 0.0 0.00 0.00 0.00 85 1012.8
20260504184402 56 19 0.0 0.0 0.00 0.00 0.00 85 1012.8
20260504183901 56 19 0.0 0.0 0.00 0.00 0.00 85 1012.8
20260504183400 57 19 0.0 0.0 0.00 0.00 0.00 85 1012.8
20260504182857 57 20 0.0 0.0 0.00 0.00 0.00 85 1012.8
20260504182358 57 21 0.0 0.0 0.00 0.00 0.00 85 1012.7
20260504181858 57 20 0.0 0.0 0.00 0.00 0.00 84 1012.7
20260504181356 57 21 0.0 0.0 0.00 0.00 0.00 84 1012.7
20260504180902 57 20 0.0 0.0 0.00 0.00 0.00 84 1012.6
20260504180354 57 21 0.0 0.0 0.00 0.00 0.00 84 1012.6
20260504180212 57 20 0.0 0.0 0.00 0.00 0.00 84 1012.6
20260504175354 57 20 0.0 0.0 0.00 0.00 0.00 84 1012.7
20260504175211 57 21 0.0 0.0 0.00 0.00 0.00 84 1012.7
20260504174722 57 20 0.0 0.0 0.00 0.00 0.00 84 1012.6
20260504173855 57 21 0.0 0.0 0.00 0.00 0.00 84 1012.5
20260504173355 58 21 0.0 0.0 0.00 0.00 0.00 84 1012.5
20260504172858 58 21 0.0 0.0 0.00 0.00 0.00 84 1012.6
20260504172354 58 21 0.0 0.0 0.00 0.00 0.00 83 1012.7
20260504172204 58 21 0.0 0.0 0.00 0.00 0.00 83 1012.6
20260504171351 58 21 0.0 0.0 0.00 0.00 0.00 83 1012.7
20260504171208 58 21 0.0 0.0 0.00 0.00 0.00 83 1012.6
20260504170659 58 19 0.0 0.0 0.00 0.00 0.00 83 1012.7
20260504160347 62 234 0.0 0.0 0.00 0.00 0.00 76 1012.5
20260504150337 62 223 0.0 0.0 0.00 0.00 0.00 77 1012.7
20260504140833 64 240 0.0 0.0 0.00 0.00 0.00 76 1012.7
20260504140330 64 248 0.0 0.0 0.00 0.00 0.00 76 1012.8
20260504130327 64 245 0.0 0.0 0.00 0.00 0.00 75 1012.6
20260504130149 64 249 0.0 0.0 0.00 0.00 0.00 76 1012.6
20260504120303 61 188 0.0 0.0 0.00 0.00 0.00 79 1012.4